Pullman, WA

11:58 PM PST on December 12, 2017 (GMT -0800)
Pullman-Moscow Regional

Weather History for KPUW - August, 2014

Change the Weather History Date:

Wednesday, August 6, 2014

  Actual Average Record
Temperature  
Mean Temperature 70 °F 67 °F  
Max Temperature 86 °F 84 °F 102 °F (1990)
Min Temperature 54 °F 51 °F 36 °F (1909)
Degree Days  
Heating Degree Days 0 1  
Month to date heating degree days 0 6  
Since 1 June heating degree days 214 276  
Since 1 July heating degree days 10 70  
Cooling Degree Days 5 4  
Month to date cooling degree days 68 24  
Year to date cooling degree days 259 124  
Since 1 June cooling degree days 258 119  
Growing Degree Days 22 (Base 50)    
Moisture  
Dew Point 42 °F    
Average Humidity 41    
Maximum Humidity 62    
Minimum Humidity 19    
Precipitation  
Precipitation 0.00 in 0.02 in 0.50 in (1957)
Month to date precipitation 0.01 0.11  
Year to date precipitation 10.95 10.39  
Sea Level Pressure  
Sea Level Pressure 29.98 in    
Wind  
Wind Speed 5 mph (West)    
Max Wind Speed 14 mph    
Max Gust Speed 20 mph    
Visibility 10 miles    
Events      
T = Trace of Precipitation, MM = Missing Value Source: NWS Daily Summary

Daily Weather History Graph

Daily Weather History Graph

Search for Another Location

Airport or City:

Trip Planner

Search our weather history database for the weather conditions in past years. The results will help you decide how hot, cold, wet, or windy it might be!

Date:

Astronomy

Aug. 06, 2014 Rise Set
Actual Time 5:34 AM PDT 8:12 PM PDT
Civil Twilight 5:00 AM PDT 8:47 PM PDT
Nautical Twilight 4:16 AM PDT 9:30 PM PDT
Astronomical Twilight 3:26 AM PDT 10:20 PM PDT
Moon 4:37 PM PDT (8/6) 1:11 AM PDT (8/6)
Length of Visible Light 15h 46m
Length of Day
14h 37m
Waxing Gibbous, 78% of the Moon is Illuminated
Aug 6
Waxing Gibbous
Aug 10
Full
Aug 17
Last Quarter
Aug 25
New
Sep 2
First Quarter

Hourly Weather History & Observations

Time (PDT) Temp. Dew Point Humidity Pressure Visibility Wind Dir Wind Speed Gust Speed Precip Events Conditions
12:53 AM 57.9 °F 45.0 °F 62% 29.93 in 10.0 mi Calm Calm - N/A   Clear
1:53 AM 59.0 °F 44.1 °F 58% 29.94 in 10.0 mi Calm Calm - N/A   Clear
2:53 AM 62.1 °F 45.0 °F 53% 29.95 in 10.0 mi Calm Calm - N/A   Clear
3:53 AM 62.1 °F 45.0 °F 53% 29.96 in 10.0 mi West 3.5 mph - N/A   Clear
4:53 AM 64.0 °F 44.1 °F 48% 29.97 in 10.0 mi WNW 4.6 mph - N/A   Clear
5:53 AM 62.1 °F 43.0 °F 50% 29.99 in 10.0 mi North 4.6 mph - N/A   Clear
6:53 AM 60.1 °F 45.0 °F 57% 30.01 in 10.0 mi Calm Calm - N/A   Clear
7:53 AM 68.0 °F 42.1 °F 39% 30.01 in 10.0 mi Variable 4.6 mph - N/A   Clear
8:53 AM 72.0 °F 39.0 °F 30% 30.01 in 10.0 mi SW 5.8 mph - N/A   Clear
10:53 AM 78.1 °F 37.9 °F 24% 30.03 in 10.0 mi West 8.1 mph - N/A   Clear
11:53 AM 79.0 °F 39.0 °F 24% 30.02 in 10.0 mi West 12.7 mph - N/A   Clear
12:35 PM 82.0 °F 41.0 °F 23% 30.06 in 9.0 mi West 9.2 mph - N/A   Partly Cloudy
12:53 PM 82.0 °F 41.0 °F 23% 30.02 in 10.0 mi WSW 10.4 mph - N/A   Clear
1:53 PM 82.9 °F 41.0 °F 23% 30.00 in 10.0 mi West 8.1 mph 17.3 mph N/A   Clear
2:53 PM 84.9 °F 39.0 °F 20% 29.98 in 10.0 mi West 9.2 mph - N/A   Clear
3:53 PM 86.0 °F 39.0 °F 19% 29.96 in 10.0 mi West 6.9 mph - N/A   Clear
4:53 PM 84.9 °F 39.9 °F 20% 29.94 in 10.0 mi WNW 10.4 mph - N/A   Clear
5:53 PM 84.0 °F 41.0 °F 22% 29.94 in 10.0 mi West 10.4 mph - N/A   Clear
6:53 PM 82.0 °F 41.0 °F 23% 29.94 in 10.0 mi West 6.9 mph - N/A   Clear
7:53 PM 77.0 °F 39.0 °F 25% 29.94 in 10.0 mi West 5.8 mph - N/A   Clear
8:53 PM 66.9 °F 42.1 °F 40% 29.96 in 10.0 mi Calm Calm - N/A   Clear
9:53 PM 62.1 °F 42.1 °F 48% 29.96 in 10.0 mi Calm Calm - N/A   Clear
10:53 PM 57.9 °F 42.1 °F 56% 29.97 in 10.0 mi Calm Calm - N/A   Clear
11:53 PM 55.0 °F 42.1 °F 62% 29.97 in 10.0 mi Calm Calm - N/A   Clear